Weather History for KWVI - December, 2012

Change the Weather History Date:

Monday, December 24, 2012

  Actual Average Record
Temperature  
Mean Temperature 49 °F 49 °F  
Max Temperature 57 °F 60 °F 74 °F (2013)
Min Temperature 41 °F 39 °F 25 °F (1998)
Degree Days  
Heating Degree Days 16    
Month to date heating degree days 344  
Since 1 July heating degree days 1085  
Cooling Degree Days 0    
Month to date cooling degree days 0  
Year to date cooling degree days 79  
Moisture  
Dew Point 44 °F    
Average Humidity 81    
Maximum Humidity 100    
Minimum Humidity 61    
Precipitation  
Precipitation 0.01 in - 3.02 in (1979)
Month to date precipitation 5.04  
Year to date precipitation 21.88  
Since 1 July precipitation 9.95  
Sea Level Pressure  
Sea Level Pressure 30.13 in    
Wind  
Wind Speed 3 mph (WNW)    
Max Wind Speed 8 mph    
Max Gust Speed 10 mph    
Visibility 8 miles    
Events Fog    
T = Trace of Precipitation, MM = Missing Value Source: NWS Daily Summary

Daily Weather History Graph

Daily Weather History Graph

Search for Another Location

Airport or City:

Trip Planner

Search our weather history database for the weather conditions in past years. The results will help you decide how hot, cold, wet, or windy it might be!

Date:

Astronomy

Dec. 24, 2012 Rise Set
Actual Time 7:18 AM PST 4:56 PM PST
Civil Twilight 6:49 AM PST 5:25 PM PST
Nautical Twilight 6:16 AM PST 5:57 PM PST
Astronomical Twilight 5:44 AM PST 6:29 PM PST
Moon 2:25 PM PST (12/24) 4:03 AM PST (12/24)
Length of Visible Light 10h 35m
Length of Day
9h 37m
Waxing Gibbous, 89% of the Moon is Illuminated
Dec 24
Waxing Gibbous
Dec 28
Full
Jan 4
Last Quarter
Jan 11
New
Jan 18
First Quarter

Hourly Weather History & Observations

Time (PST) Temp. Windchill Dew Point Humidity Pressure Visibility Wind Dir Wind Speed Gust Speed Precip Events Conditions
12:53 AM 48.9 °F - 48.9 °F 100% 30.05 in 10.0 mi West 4.6 mph - N/A   Clear
1:53 AM 46.9 °F - 45.0 °F 93% 30.07 in 10.0 mi NW 3.5 mph - 0.01 in   Clear
2:53 AM 45.0 °F 43.5 °F 45.0 °F 100% 30.09 in 10.0 mi NW 3.5 mph - N/A   Clear
3:53 AM 44.1 °F 42.5 °F 44.1 °F 100% 30.09 in 10.0 mi NW 3.5 mph - N/A   Clear
4:06 AM 42.8 °F 40.1 °F 42.8 °F 100% 30.09 in 5.0 mi WNW 4.6 mph - N/A   Scattered Clouds
4:09 AM 44.6 °F 43.1 °F 44.6 °F 100% 30.09 in 1.8 mi Variable 3.5 mph - N/A   Mostly Cloudy
4:12 AM 44.6 °F 43.1 °F 44.6 °F 100% 30.09 in 0.8 mi Variable 3.5 mph - N/A   Mist
4:26 AM 44.6 °F - 44.6 °F 100% 30.09 in 0.2 mi Calm Calm - N/A Fog Fog
4:45 AM 44.6 °F 43.1 °F 44.6 °F 100% 30.09 in 0.8 mi Variable 3.5 mph - N/A   Mist
4:50 AM 46.4 °F - 46.4 °F 100% 30.09 in 1.5 mi Calm Calm - N/A   Mostly Cloudy
4:53 AM 45.0 °F - 45.0 °F 100% 30.09 in 4.0 mi Calm Calm - N/A   Mostly Cloudy
5:00 AM 44.6 °F 42.2 °F 44.6 °F 100% 30.09 in 1.8 mi West 4.6 mph - N/A   Mostly Cloudy
5:12 AM 44.6 °F 43.1 °F 44.6 °F 100% 30.10 in 2.0 mi WNW 3.5 mph - N/A   Mostly Cloudy
5:22 AM 42.8 °F 41.1 °F 42.8 °F 100% 30.11 in 7.0 mi WNW 3.5 mph - N/A   Mostly Cloudy
5:35 AM 42.8 °F 41.1 °F 42.8 °F 100% 30.12 in 10.0 mi NW 3.5 mph - N/A   Scattered Clouds
5:53 AM 42.1 °F 39.2 °F 42.1 °F 100% 30.13 in 10.0 mi NW 4.6 mph - N/A   Clear
6:53 AM 41.0 °F 38.0 °F 41.0 °F 100% 30.17 in 10.0 mi NW 4.6 mph - N/A   Partly Cloudy
7:53 AM 41.0 °F 39.0 °F 41.0 °F 100% 30.18 in 10.0 mi WNW 3.5 mph - N/A   Clear
8:53 AM 44.1 °F - 44.1 °F 100% 30.19 in 10.0 mi Calm Calm - N/A   Scattered Clouds
9:53 AM 50.0 °F - 50.0 °F 100% 30.21 in 10.0 mi Calm Calm - N/A   Clear
10:53 AM 53.1 °F - 46.0 °F 77% 30.20 in 10.0 mi Calm Calm - N/A   Clear
11:53 AM 54.0 °F - 45.0 °F 72% 30.18 in 10.0 mi SSE 3.5 mph - N/A   Clear
12:53 PM 55.9 °F - 43.0 °F 62% 30.17 in 10.0 mi Calm Calm - N/A   Partly Cloudy
1:53 PM 55.9 °F - 43.0 °F 62% 30.15 in 10.0 mi SW 4.6 mph - N/A   Clear
2:53 PM 55.0 °F - 44.1 °F 67% 30.15 in 10.0 mi WSW 6.9 mph - N/A   Clear
3:53 PM 53.1 °F - 43.0 °F 69% 30.15 in 10.0 mi WSW 8.1 mph - N/A   Partly Cloudy
4:53 PM 51.1 °F - 44.1 °F 77% 30.14 in 10.0 mi Calm Calm - N/A   Clear
5:53 PM 48.0 °F - 44.1 °F 86% 30.15 in 10.0 mi Calm Calm - N/A   Clear
6:53 PM 46.0 °F 44.8 °F 44.1 °F 93% 30.15 in 10.0 mi NW 3.5 mph - N/A   Clear
7:53 PM 45.0 °F 42.6 °F 43.0 °F 93% 30.15 in 10.0 mi NNW 4.6 mph - N/A   Clear
8:53 PM 45.0 °F - 42.1 °F 90% 30.15 in 10.0 mi Calm Calm - N/A   Clear
9:53 PM 45.0 °F - 42.1 °F 90% 30.15 in 10.0 mi Calm Calm - N/A   Clear
10:53 PM 44.1 °F 41.5 °F 41.0 °F 89% 30.17 in 10.0 mi NW 4.6 mph - N/A   Clear
11:53 PM 42.1 °F 40.2 °F 39.9 °F 92% 30.17 in 10.0 mi NW 3.5 mph - N/A   Clear